Tracking 19149 objects as of 21-Apr-2018
HD Live streaming from Space Station
objects crossing your sky now

FENGYUN 1C DEB

Track FENGYUN 1C DEB now!
10-day predictions


NORAD ID: 38144
Int'l Code: 1999-025EQR
Perigee: 841.2 km
Apogee: 1,297.0 km
Inclination: 99.0 °
Period: 106.4 minutes
Semi major axis: 7440 km
RCS: 0.009 m2 (small)
Launch date: May 10, 1999
Source: People's Republic of China (PRC)
Launch site: Taiyaun Space Center, China (TSC)

Note: This is SATELLITE DEBRIS
aabbcc
Your satellite tracking list
Your tracking list is empty




NASA's NSSDC Master Catalog

Two Line Element Set (TLE):
1 38144U 99025EQR 18099.28041840  .00000313  00000-0  39284-3 0  9995
2 38144  98.9899 126.8281 0306327 177.5281 182.7457 13.52814247468643
Source of the keplerian elements: AFSPC